Regional Weather Roundup
Issued by NWS

Home | Current Version | Previous Version | Graphics & Text | Print | Product List | Glossary On
Versions: 1 2 3 4 5 6 7 8 9 10 11 12 13 14 15 16 17 18 19 20 21 22 23 24 25 26 27 28 29 30 31 32 33 34 35 36 37 38 39 40 41 42 43 44 45 46 47 48 49 50
000
ASUS43 KOAX 260002
RWRNE

WEATHER ROUNDUP FOR NEBRASKA
NATIONAL WEATHER SERVICE OMAHA NE
700 PM CDT MON SEP 25 2017

NOTES: SATELLITE DATA IS BEING USED TO AUGMENT CLOUD COVER ABOVE
       12000 FEET.
       "FAIR" INDICATES FEW OR NO CLOUDS BELOW 12,000 FEET WITH NO
       SIGNIFICANT WEATHER AND/OR OBSTRUCTIONS TO VISIBILITY.


NEZ001>004-019>022-054>056-260100-
NEBRASKA PANHANDLE

CITY           SKY/WX    TMP DP  RH WIND       PRES   REMARKS
SCOTTSBLUFF    PTCLDY    55  42  61 SE10      30.06F
6HR MIN TEMP:  49; 6HR MAX TEMP:  58;

ALLIANCE       CLOUDY    50  41  71 NE8       30.07F
6HR MIN TEMP:  47; 6HR MAX TEMP:  54;

CHADRON        CLEAR     52  40  63 E12       30.08F
6HR MIN TEMP:  48; 6HR MAX TEMP:  56;

GORDON         CLOUDY    50  41  72 NE7       30.08F
6HR MIN TEMP:  47; 6HR MAX TEMP:  51;

KIMBALL        CLOUDY    47  40  76 N7        30.09R
SIDNEY         CLOUDY    49  41  74 N13       30.07F
6HR MIN TEMP:  47; 6HR MAX TEMP:  51;

$$

NEZ057>060-069>072-079>082-260100-
SOUTHWEST NEBRASKA

CITY           SKY/WX    TMP DP  RH WIND       PRES   REMARKS
NORTH PLATTE   HVY RAIN  50  47  89 N9        30.06S FOG
6HR MIN TEMP:  50; 6HR MAX TEMP:  52; 6HR PCP:  0.07;

IMPERIAL       LGT RAIN  50  46  86 N9        30.07R
6HR MIN TEMP:  50; 6HR MAX TEMP:  52; 6HR PCP:  0.08;

LEXINGTON      CLOUDY    52  48  87 N10       30.03R
MCCOOK         CLOUDY    51  50  96 N10       30.03R
6HR MIN TEMP:  51; 6HR MAX TEMP:  54; 6HR PCP:  0.17;

OGALLALA       DRIZZLE   51  49  92 NE8       30.07S
$$

NEZ005>010-023>029-035>040-094-260100-
NORTH CENTRAL NEBRASKA

CITY           SKY/WX    TMP DP  RH WIND       PRES   REMARKS
VALENTINE      RAIN      50  47  89 N9        30.09S
6HR MIN TEMP:  49; 6HR MAX TEMP:  53; 6HR PCP:  0.07;

AINSWORTH      CLOUDY    48  48  97 N7        30.08S
BROKEN BOW     CLOUDY    50  47  89 N14       30.03S
6HR MIN TEMP:  50; 6HR MAX TEMP:  53; 6HR PCP: TRACE;

O`NEILL        CLOUDY    50  50 100 N10       30.05R FOG
ORD            CLOUDY    50  47  89 N17       30.01S
6HR MIN TEMP:  50; 6HR MAX TEMP:  52; 6HR PCP:  0.01;

THEDFORD       DRIZZLE   49  47  93 N9        30.07F
$$

NEZ041-046>049-061>064-073>077-083>087-260100-
SOUTH CENTRAL NEBRASKA

CITY           SKY/WX    TMP DP  RH WIND       PRES   REMARKS
GRAND ISLAND   CLOUDY    52  52 100 N12       30.00R
6HR MIN TEMP:  52; 6HR MAX TEMP:  54; 6HR PCP: TRACE;

AURORA         CLOUDY    52  52 100 N10       29.99R FOG
HASTINGS       CLOUDY    53  51  93 N10       29.99R
6HR MIN TEMP:  53; 6HR MAX TEMP:  54; 6HR PCP: TRACE;

HEBRON         RAIN      58  57  97 NE5       29.96R
HOLDREGE       DRIZZLE   51  49  94 N9        30.00S
KEARNEY        LGT RAIN  50  49  96 N13       30.02R FOG
YORK           CLOUDY    55  55 100 N10G20    29.97S
$$

NEZ011>018-030>034-042>045-260100-
NORTHEAST NEBRASKA

CITY           SKY/WX    TMP DP  RH WIND       PRES   REMARKS
NORFOLK        LGT RAIN  53  53 100 N13       29.98F FOG
6HR MIN TEMP:  53; 6HR MAX TEMP:  54; 6HR PCP:  0.03;

ALBION         CLOUDY    53  51  94 N9        30.00R
BLAIR          FOG       60  60  97 N14       29.93S VSB 3/4
COLUMBUS       CLOUDY    55  53  93 N10       29.98R
FREMONT        CLOUDY    58  57  96 N7        29.95R
TEKAMAH        CLOUDY    59  57  93 N10       29.95S
6HR MIN TEMP:  59; 6HR MAX TEMP:  63; 6HR PCP:  0.02;

WAYNE          CLOUDY    55  52  90 N9        29.98S
$$

NEZ050>053-065>068-078-088>093-260100-
SOUTHEAST NEBRASKA

CITY           SKY/WX    TMP DP  RH WIND       PRES   REMARKS
LINCOLN        LGT RAIN  60  58  92 N12       29.95R
6HR MIN TEMP:  60; 6HR MAX TEMP:  64; 6HR PCP:  0.08;

OMAHA EPPLEY   CLOUDY    63  60  90 N14       29.92F FOG
6HR MIN TEMP:  63; 6HR MAX TEMP:  69; 6HR PCP:  0.01;

BEATRICE       DRIZZLE   63  62  97 N7        29.93S
FALLS CITY     CLOUDY    67  66  97 W9        29.91R
6HR MIN TEMP:  67; 6HR MAX TEMP:  82; 6HR PCP:  0.88;

NEBRASKA CITY  CLOUDY    65  65 100 NW7       29.92R
PLATTSMOUTH    CLOUDY    65  65 100 NW7       29.92R FOG
$$

NEZ044-045-051>053-067-260100-
OMAHA AREA

CITY           SKY/WX    TMP DP  RH WIND       PRES   REMARKS
OMAHA EPPLEY   CLOUDY    63  60  90 N14       29.92F FOG
6HR MIN TEMP:  63; 6HR MAX TEMP:  69; 6HR PCP:  0.01;

BLAIR          FOG       60  60  97 N14       29.93S VSB 3/4
FREMONT        CLOUDY    58  57  96 N7        29.95R
MILLARD        RAIN      64  63  95 N6        29.93R
OFFUTT AFB     CLOUDY    65  62  93 N9        29.92R
PLATTSMOUTH    CLOUDY    65  65 100 NW7       29.92R FOG
WAHOO          LGT RAIN  59  58  97 N7        29.95R
$$



USA.gov is the U.S. government's official web portal to all federal, state and local government web resources and services.